Regional Weather Roundup
Issued by NWS New Orleans/Baton Rouge, LA

Home | Current Version | Previous Version | Text Only | Print | Product List | Glossary On
Versions: 1 2 3 4 5 6 7 8 9 10 11 12 13 14 15 16 17 18 19 20 21 22 23 24 25 26 27 28 29 30 31 32 33 34 35 36 37 38 39 40 41 42 43 44 45 46 47 48 49 50
459
ASUS44 KLIX 041810
RWRLIX
NEW ORLEANS REGIONAL WEATHER ROUNDUP
NATIONAL WEATHER SERVICE NEW ORLEANS LA
1200 PM CST WED MAR 04 2015

NOTE: "FAIR" INDICATES FEW OR NO CLOUDS BELOW 12,000 FEET WITH NO
      SIGNIFICANT WEATHER AND/OR OBSTRUCTIONS TO VISIBILITY.
      SKY/WX - SKY CONDITION AND SIGNIFICANT WEATHER.
      TMP - AIR TEMPERATURE.     DP    - DEWPOINT TEMPERATURE.
      RH  - RELATIVE HUMIDITY.   PRES  - PRESSURE.
      HI  - HEAT INDEX.          WCI   - WIND CHILL INDEX.

*  THESE STATIONS ARE NOT NWS OR FAA STATIONS AND ARE NOT UNDER
   NWS QUALITY CONTROL.

LAZ038-040-048-061>063-065>067-069-041900-
SOUTHEAST LOUISIANA

CITY           SKY/WX    TMP DP  RH WIND       PRES   REMARKS
N.O. AUDUBON   NOT AVBL
N.O. INTL ARPT PTSUNNY   80  66  62 S18G24    29.97F
6HR MIN TEMP:  68; 6HR MAX TEMP:  81; 6HR PCP: TRACE;

N.O. LAKEFRONT CLOUDY    78  64  61 SW13      29.98F
6HR MIN TEMP:  64; 6HR MAX TEMP:  83;

SLIDELL        PTSUNNY   79  69  71 S9        29.98F
6HR MIN TEMP:  67; 6HR MAX TEMP:  80; 6HR PCP:  0.01;

BATON ROUGE    PTSUNNY   78  65  63 SW15G24   29.95F
6HR MIN TEMP:  68; 6HR MAX TEMP:  80;

BOOTHVILLE     PTSUNNY   76  69  79 S14       30.00F
6HR MIN TEMP:  64; 6HR MAX TEMP:  77;

BELLE CHASSE   PTSUNNY   80  68  66 S17       29.97F
6HR MIN TEMP:  66; 6HR MAX TEMP:  81; 6HR PCP: TRACE;

BOGALUSA*        N/A     80  66  61 SW8G18    29.99F
6HR MIN TEMP:  69; 6HR MAX TEMP:  81; 6HR PCP:  0.01;

GALLIANO*      MOCLDY    83  70  64 S15G23    29.99F
6HR MIN TEMP:  64; 6HR MAX TEMP:  83;

NEW ROADS*     MOCLDY    80  65  60 S13G22    29.95F
6HR MIN TEMP:  66; 6HR MAX TEMP:  81;

GONZALES*        N/A     81  66  60 S16G23    29.96F
6HR MIN TEMP:  67; 6HR MAX TEMP:  81;

HAMMOND*         N/A     82  64  54 S16G23    29.98F
HOUMA*         PTSUNNY   81  70  69 S17       29.98F
PORT FOURCHON* CLEAR     77  70  78 S9        30.02F

$$

MSZ070-080>082-041900-
SOUTHERN MISSISSIPPI

CITY           SKY/WX    TMP DP  RH WIND       PRES   REMARKS
MCCOMB           N/A     77  66  68 S13G24    29.97F
6HR MIN TEMP:  67; 6HR MAX TEMP:  77; 6HR PCP: TRACE;

GULFPORT       CLOUDY    71  67  87 S10       30.00F
6HR MIN TEMP:  63; 6HR MAX TEMP:  73;

BILOXI         CLOUDY    71  69  95 S9        30.00F
6HR MIN TEMP:  65; 6HR MAX TEMP:  74; 6HR PCP: TRACE;

PASCAGOULA     PTSUNNY   78  69  73 S16G24    30.00F
6HR MIN TEMP:  66; 6HR MAX TEMP:  79;

STENNIS ARPT*  LGT RAIN  72  66  83 S12       30.01F

$$

COASTAL OBSERVATIONS
LAKE AND NEARSHORE STATIONS

STATION/POSITION TIME  TEMP    WIND        PRES    WAVE
                       AIR SEA DIR/SP/G            HT/PER
                 (UTC) (F)     (DEG/KT/KT) (MB)    (FT/S)
PASCAGOULA       1800   73     150/  9/ 17 1015.8
WAVELAND YACHT   1800   66 60  190/  6/ 12 1016.0
GRAND ISLE       1800   73 65  150/  6/  9 1016.1
SOUTHWEST PASS   1800   71 46  160/ 10/ 11 1016.2
NEW CANAL        1800   78     220/  9/ 12 1015.6
SHELL BEACH      1800   72 60  170/ 10/ 14 1015.8

OFFSHORE STATIONS

STATION/POSITION TIME  TEMP    WIND        PRES    WAVE
                       AIR SEA DIR/SP/G            HT/PER
                 (UTC) (F)     (DEG/KT/KT) (MB)    (FT/S)
64 S DAUPHIN ISL 1746   73 72  160/ 16/ 17 1016.8    4/ 6

$$




USA.gov is the U.S. government's official web portal to all federal, state and local government web resources and services.